#timestamp,LO_Frequency,Hit,StdDev 
1515924015.3,286046998.0,N
1515924035.1,286046998.6,N
1515924055.9,286047004.1,N
1515924075.7,286047005.7,N
1515924095.6,286047003.6,N
1515924115.4,286047002.7,N
1515924135.3,286047000.2,N
1515924155.1,286046998.7,N
1515924156.0,286046998.7,N
1515924175.8,286046998.8,N
1515924195.7,286046998.9,N
1515924215.5,286047000.5,N
1515924235.4,286047000.3,N
1515924255.2,286047000.8,N
1515924275.0,286047000.2,N
1515924275.9,286047000.2,N
1515924295.8,286047002.3,N
1515924315.6,286047003.6,N
1515924335.5,286047004.7,N
1515924355.3,286047003.3,N
1515924375.1,286047003.4,N
1515924395.9,286047001.6,N
1515924415.7,286047002.5,N
1515924435.6,286047002.0,N
1515924455.4,286047003.4,N
1515924475.2,286047003.2,N
1515924495.1,286047003.5,N
1515924496.0,286047003.5,N
1515924515.8,286047001.8,N
1515924535.6,286047003.5,N
1515924555.5,286047002.0,N
1515924575.3,286047001.4,N
1515924595.2,286047000.1,N
1515924615.9,286047001.1,N
1515924635.7,286046999.3,N
1515924655.6,286046998.8,N
1515924675.4,286047000.5,N
1515924695.2,286047000.5,N
1515924715.1,286046998.5,N
1515924716.0,286046998.5,N
1515924735.8,286047000.0,N
1515924755.7,286046996.7,N
1515924775.5,286047000.4,N
1515924795.3,286046999.0,N
1515924815.2,286047001.9,N
1515924835.0,286047003.8,N
1515924835.9,286047003.8,N
1515924855.8,286047002.3,N
1515924875.6,286047002.5,N
1515924895.4,286047001.3,N
1515924915.3,286047002.5,N
1515924935.1,286047001.0,N
1515924955.9,286046998.1,N
1515924975.7,286047000.3,N
1515924995.5,286047000.1,N
1515925015.4,286047000.1,N
1515925035.2,286047000.2,N
1515925055.0,286047000.9,N
1515925055.9,286047000.9,N
1515925075.8,286047002.4,N
1515925095.6,286047001.2,N
1515925115.5,286046999.0,N
1515925135.3,286047002.0,N
1515925155.1,286047003.9,N
1515925175.9,286047002.8,N
1515925195.7,286047001.7,N
1515925215.5,286047004.0,N
1515925235.4,286047003.7,N
1515925255.2,286047001.6,N
1515925275.1,286047001.5,N
1515925276.0,286047001.5,N
1515925325.8,286047006.0,E
1515925335.7,286047002.6,N
1515925355.6,286047002.7,P
1515925375.4,286046996.9,P
1515925395.2,286046997.0,N
1515925415.1,286046998.3,N
1515925416.0,286046998.3,N
1515925435.8,286046996.9,N
1515925455.7,286046997.8,N
1515925475.5,286046999.4,N
1515925495.3,286046999.1,N
1515925515.2,286046997.7,N
1515925535.9,286046996.3,N
1515925555.7,286046995.4,N
1515925575.6,286046995.7,N
1515925595.4,286046990.1,Y
1515925615.3,286046992.8,P
1515925635.1,286046992.2,N
1515925636.0,286046992.2,N
1515925655.8,286046991.7,Y
1515925675.7,286047000.8,P
1515925695.5,286047000.6,N
1515925715.4,286047000.6,N
1515925735.2,286047001.4,N
1515925755.0,286047002.5,N
1515925755.9,286047002.5,N
1515925775.8,286047005.8,N
1515925795.6,286047003.5,N
1515925815.5,286047003.7,N
1515925835.3,286047002.0,N
1515925855.1,286047001.0,N
1515925875.9,286047001.3,N
1515925895.7,286047003.8,N
1515925915.5,286047005.5,N
1515925935.4,286047004.8,N
1515925955.2,286047005.8,N
1515925975.1,286047003.1,N
1515925976.0,286047003.1,N
1515925995.8,286047002.0,N
1515926015.6,286047001.6,N
1515926035.5,286047004.1,N
1515926055.3,286047004.2,N
1515926075.1,286047002.0,N
1515926095.9,286047001.6,N
1515926115.7,286047003.5,N
1515926135.6,286047001.4,N
1515926155.4,286047002.1,N
1515926175.2,286046999.7,N
1515926195.1,286047003.8,N
1515926196.0,286047003.8,N
1515926215.8,286047001.8,N
1515926235.7,286047004.2,N
1515926255.5,286047003.8,N
1515926275.3,286047003.9,N
1515926295.2,286047001.7,N
1515926315.0,286047006.0,Y
1515926315.9,286047006.0,P
1515926335.8,286046999.7,N
1515926355.6,286046998.4,N
1515926375.4,286046997.6,N
1515926395.3,286046997.5,N
1515926415.1,286046997.0,N
1515926435.0,286046998.1,N
1515926435.9,286046998.1,N
1515926455.7,286046999.7,N
1515926475.6,286047000.7,N
1515926495.4,286047002.7,N
1515926515.3,286047001.5,N
1515926535.1,286047002.0,N
1515926536.0,286047002.0,N
1515926555.8,286047000.4,N
1515926575.7,286046999.8,N
1515926595.5,286047002.2,N
1515926615.3,286047003.2,N
1515926635.2,286047006.1,N
1515926655.0,286047008.4,Y
1515926655.9,286047008.4,P
1515926675.8,286047007.0,N
1515926695.6,286047008.9,N
1515926715.4,286047005.3,N
1515926735.3,286047005.3,N
1515926755.1,286047003.5,N
1515926775.9,286047001.4,N
1515926795.7,286047002.7,N
1515926815.5,286047002.7,N
1515926835.4,286047003.9,N
1515926855.2,286047004.2,N
1515926875.0,286047003.9,N
1515926875.9,286047003.9,N
1515926895.8,286047004.4,N
1515926915.6,286047001.8,N
1515926935.5,286047004.4,N
1515926955.3,286047002.0,N
1515926975.1,286047002.6,N
1515926995.9,286047001.4,N
1515927015.7,286047005.2,N
1515927035.5,286047006.0,N
1515927055.4,286047004.7,N
1515927075.2,286047008.5,Y
1515927095.1,286047001.7,P
1515927096.0,286047001.7,N
1515927115.8,286046999.7,N
1515927135.6,286047002.1,N
1515927155.5,286047004.3,Y
1515927175.3,286046999.7,P
1515927195.2,286047000.5,N
1515927215.0,286047001.0,N
1515927215.9,286047001.0,N
1515927235.7,286047002.7,Y
1515927255.6,286047001.9,P
1515927275.4,286047003.3,P
1515927295.3,286047001.4,N
1515927315.1,286046998.7,N
1515927316.0,286046998.7,N
1515927335.8,286046999.3,N
1515927355.7,286047001.2,N
1515927375.5,286047001.2,N
1515927395.3,286047000.7,N
1515927415.2,286047001.1,N
1515927435.0,286046999.4,N
1515927435.9,286046999.4,N
1515927455.8,286046997.6,N
1515927475.6,286046997.6,N
1515927495.4,286046995.0,Y
1515927515.3,286046995.5,P
1515927535.1,286046999.1,N
1515927555.9,286047001.2,N
1515927575.7,286047000.4,N
1515927595.5,286046999.7,N
